North Andover, MA

5:47 AM EST on December 09, 2016 (GMT -0500)
Lawrence Municipal

Weather History for KLWM - March, 2013

Change the Weather History Date:

Tuesday, March 19, 2013

  Actual Average Record
Temperature  
Mean Temperature 32 °F -  
Max Temperature 35 °F 43 °F 80 °F (2012)
Min Temperature 27 °F 26 °F 4 °F (1967)
Degree Days  
Heating Degree Days 34    
Moisture  
Dew Point 29 °F    
Average Humidity 87    
Maximum Humidity 93    
Minimum Humidity 81    
Precipitation  
Precipitation 0.66 in - - ()
Sea Level Pressure  
Sea Level Pressure 29.89 in    
Wind  
Wind Speed 11 mph (ENE)    
Max Wind Speed 25 mph    
Max Gust Speed 38 mph    
Visibility 1 miles    
Events Fog , Snow , Thunderstorm    
Averages and records for this station are not official NWS values.
T = Trace of Precipitation, MM = Missing Value Source: NWS Daily Summary

Daily Weather History Graph

Daily Weather History Graph

Search for Another Location

Airport or City:

Trip Planner

Search our weather history database for the weather conditions in past years. The results will help you decide how hot, cold, wet, or windy it might be!

Date:

Astronomy

Mar. 19, 2013 Rise Set
Actual Time 6:49 AM EDT 6:55 PM EDT
Civil Twilight 6:21 AM EDT 7:24 PM EDT
Nautical Twilight 5:48 AM EDT 7:57 PM EDT
Astronomical Twilight 5:14 AM EDT 8:30 PM EDT
Moon 11:29 AM EDT (3/19) 1:47 AM EDT (3/19)
Length of Visible Light 13h 03m
Length of Day
12h 06m
Waxing Crescent, 49% of the Moon is Illuminated
Mar 19
Waxing Crescent
Mar 19
First Quarter
Mar 27
Full
Apr 3
Last Quarter
Apr 10
New

Hourly Weather History & Observations

Time (EDT) Temp. Windchill Dew Point Humidity Pressure Visibility Wind Dir Wind Speed Gust Speed Precip Events Conditions
12:08 AM 30.2 °F 26.7 °F 26.6 °F 86% 30.26 in 1.2 mi SE 3.5 mph - N/A Snow Light Snow
12:54 AM 30.0 °F 23.2 °F 25.0 °F 82% 30.23 in 1.0 mi East 6.9 mph - 0.03 in Snow Light Snow
1:14 AM 30.2 °F 22.6 °F 26.6 °F 86% 30.21 in 0.8 mi East 8.1 mph - 0.01 in Snow Light Snow
1:54 AM 28.9 °F 20.4 °F 26.1 °F 89% 30.19 in 0.8 mi East 9.2 mph - 0.03 in Snow Light Snow
2:54 AM 30.0 °F 24.1 °F 26.1 °F 85% 30.14 in 0.8 mi East 5.8 mph - 0.06 in Snow Light Snow
3:01 AM 30.2 °F 24.3 °F 26.6 °F 86% 30.13 in 0.5 mi East 5.8 mph - 0.00 in Fog , Snow Snow
3:54 AM 30.0 °F 26.5 °F 28.0 °F 92% 30.13 in 0.5 mi East 3.5 mph - 0.07 in Fog , Snow Snow
4:33 AM 30.2 °F 20.8 °F 28.4 °F 93% 30.10 in 0.8 mi East 11.5 mph 16.1 mph 0.05 in Snow Light Snow
4:54 AM 30.9 °F 22.2 °F 28.0 °F 89% 30.10 in 0.8 mi East 10.4 mph - 0.06 in Snow Light Snow
5:27 AM 30.2 °F 22.6 °F 28.4 °F 93% 30.08 in 0.5 mi East 8.1 mph - 0.02 in Fog , Snow Snow
5:54 AM 30.9 °F 22.8 °F 28.0 °F 89% 30.09 in 0.5 mi East 9.2 mph - 0.05 in Fog , Snow Snow
6:08 AM 30.2 °F 22.6 °F 28.4 °F 93% 30.08 in 0.8 mi East 8.1 mph - 0.02 in Snow Light Snow
6:25 AM 32.0 °F 24.2 °F 28.4 °F 87% 30.07 in 1.0 mi East 9.2 mph 16.1 mph 0.02 in Snow Light Snow
6:54 AM 32.0 °F 25.6 °F 28.9 °F 88% 30.06 in 1.0 mi East 6.9 mph - 0.04 in Snow Light Snow
7:01 AM 32.0 °F 25.6 °F 28.4 °F 87% 30.05 in 0.5 mi East 6.9 mph - 0.00 in Fog , Snow Snow
7:23 AM 32.0 °F 24.8 °F 28.4 °F 87% 30.04 in 0.8 mi East 8.1 mph 16.1 mph 0.00 in Snow Light Snow
7:37 AM 32.0 °F 23.6 °F 28.4 °F 87% 30.03 in 1.0 mi East 10.4 mph 19.6 mph 0.01 in Snow Light Snow
7:45 AM 33.8 °F 24.8 °F 28.4 °F 81% 30.03 in 0.8 mi East 12.7 mph 19.6 mph 0.01 in Snow Light Snow
7:54 AM 33.1 °F 23.9 °F 28.9 °F 85% 30.02 in 0.5 mi East 12.7 mph 19.6 mph 0.01 in Fog , Snow Light Snow
8:01 AM 33.8 °F 25.8 °F 30.2 °F 87% 30.02 in 0.5 mi East 10.4 mph 18.4 mph 0.00 in Fog , Snow Light Snow
8:54 AM 33.1 °F 23.0 °F 30.0 °F 89% 30.00 in 0.8 mi East 15.0 mph 21.9 mph 0.02 in Snow Light Snow
9:24 AM 33.8 °F 24.8 °F 30.2 °F 87% 29.98 in 1.2 mi East 12.7 mph 21.9 mph N/A Snow Light Snow
9:54 AM 34.0 °F 25.5 °F 30.0 °F 85% 29.96 in 1.5 mi East 11.5 mph 21.9 mph 0.00 in Snow Light Snow
10:20 AM 33.8 °F 24.3 °F 30.2 °F 87% 29.94 in 0.5 mi East 13.8 mph 20.7 mph 0.01 in Fog , Snow Snow
10:35 AM 33.8 °F 25.3 °F 30.2 °F 87% 29.94 in 0.8 mi ENE 11.5 mph 23.0 mph 0.02 in Snow Light Snow
10:51 AM 33.8 °F 24.3 °F 30.2 °F 87% 29.93 in 0.5 mi ENE 13.8 mph 20.7 mph 0.03 in Fog , Snow Snow
10:54 AM 34.0 °F 25.0 °F 30.9 °F 89% 29.93 in 0.5 mi East 12.7 mph 20.7 mph 0.03 in Fog , Snow Snow
11:25 AM 35.6 °F 26.2 °F 30.2 °F 81% 29.89 in 0.8 mi ENE 15.0 mph 24.2 mph 0.01 in Snow Light Snow
11:32 AM 35.6 °F 25.9 °F 30.2 °F 81% 29.89 in 1.0 mi ENE 16.1 mph 28.8 mph 0.01 in Snow Light Snow
11:47 AM 35.6 °F 25.9 °F 30.2 °F 81% 29.88 in 0.8 mi East 16.1 mph 26.5 mph 0.02 in Snow Light Snow
11:54 AM 35.1 °F 25.2 °F 30.9 °F 85% 29.88 in 0.8 mi ENE 16.1 mph 26.5 mph 0.02 in Snow Light Snow
12:06 PM 35.6 °F 27.1 °F 30.2 °F 81% 29.87 in 1.0 mi ENE 12.7 mph 24.2 mph 0.00 in Snow Light Snow
12:54 PM 35.1 °F 25.9 °F 30.9 °F 85% 29.84 in 1.0 mi East 13.8 mph 25.3 mph 0.00 in Snow Light Snow
1:54 PM 35.1 °F 24.5 °F 30.9 °F 85% 29.76 in 1.0 mi East 18.4 mph 31.1 mph 0.02 in Snow Light Snow
2:49 PM 33.8 °F 24.3 °F 30.2 °F 87% 29.76 in 0.8 mi NE 13.8 mph 23.0 mph 0.02 in Snow Light Snow
2:54 PM 34.0 °F 25.0 °F 30.9 °F 89% 29.78 in 0.8 mi NNE 12.7 mph 23.0 mph 0.03 in Snow Light Snow
3:17 PM 33.8 °F 25.3 °F 30.2 °F 87% 29.80 in 0.5 mi North 11.5 mph - 0.05 in Fog , Snow Snow
3:31 PM 33.8 °F 24.8 °F 30.2 °F 87% 29.77 in 0.2 mi NE 12.7 mph - 0.07 in Fog , Snow , Thunderstorm Snow
3:46 PM 33.8 °F 23.9 °F 30.2 °F 87% 29.76 in 0.5 mi NNE 15.0 mph - 0.10 in Fog , Snow Snow
3:54 PM 34.0 °F 23.4 °F 30.9 °F 89% 29.77 in 0.2 mi NE 17.3 mph - 0.11 in Fog , Snow Heavy Snow
4:34 PM 33.8 °F 21.3 °F 30.2 °F 87% 29.64 in 0.8 mi NE 24.2 mph 34.5 mph 0.05 in Snow Light Snow
4:45 PM 33.8 °F 22.2 °F 30.2 °F 87% 29.68 in 0.5 mi NE 20.7 mph 32.2 mph 0.05 in Fog , Snow Snow
4:54 PM 34.0 °F 22.1 °F 30.9 °F 89% 29.68 in 0.5 mi NE 21.9 mph 32.2 mph 0.05 in Fog , Snow Snow
5:18 PM 33.8 °F 21.0 °F 30.2 °F 87% 29.65 in 1.0 mi NE 25.3 mph 38.0 mph 0.01 in Snow Light Snow
5:41 PM 33.8 °F 21.9 °F 30.2 °F 87% 29.65 in 2.0 mi NE 21.9 mph 35.7 mph 0.01 in Snow Light Snow
5:54 PM 34.0 °F 22.7 °F 30.0 °F 85% 29.67 in 2.5 mi NE 19.6 mph 28.8 mph 0.01 in Snow Light Snow
6:16 PM 33.8 °F 21.9 °F 30.2 °F 87% 29.65 in 1.5 mi NE 21.9 mph 31.1 mph 0.00 in Snow Light Snow
6:54 PM 34.0 °F 21.8 °F 30.0 °F 85% 29.66 in 1.0 mi NNE 23.0 mph 33.4 mph 0.00 in Snow Light Snow
7:54 PM 34.0 °F 23.8 °F 30.0 °F 85% 29.65 in 1.5 mi NNE 16.1 mph 29.9 mph 0.00 in Snow Light Snow
8:22 PM 33.8 °F 23.5 °F 30.2 °F 87% 29.65 in 2.0 mi NNE 16.1 mph 21.9 mph 0.00 in Snow Light Snow
8:32 PM 33.8 °F 24.8 °F 30.2 °F 87% 29.65 in 1.5 mi NNE 12.7 mph 23.0 mph 0.00 in Snow Light Snow
8:54 PM 33.1 °F 23.9 °F 30.0 °F 89% 29.67 in 1.8 mi North 12.7 mph 19.6 mph 0.00 in Snow Light Snow
9:54 PM 30.0 °F 21.1 °F 26.1 °F 85% 29.71 in 1.2 mi NNW 10.4 mph 18.4 mph 0.01 in Snow Light Snow
10:54 PM 28.0 °F 20.0 °F 25.0 °F 88% 29.73 in 1.2 mi NW 8.1 mph - 0.01 in Snow Light Snow
11:02 PM 28.4 °F 18.5 °F 24.8 °F 86% 29.71 in 1.5 mi NNW 11.5 mph 19.6 mph 0.00 in Snow Light Snow
11:09 PM 28.4 °F 20.4 °F 24.8 °F 86% 29.71 in 2.5 mi NNW 8.1 mph 19.6 mph 0.00 in Snow Light Snow
11:12 PM 28.4 °F 21.2 °F 24.8 °F 86% 29.71 in 3.0 mi NNW 6.9 mph - 0.00 in Snow Light Snow
11:54 PM 27.0 °F 15.6 °F 23.0 °F 85% 29.71 in 7.0 mi NNW 13.8 mph 19.6 mph 0.00 in Snow Light Snow